{"data":{"norad_id":57426,"epoch":"2026-09-21T22:55:26.372640Z","epoch_age_seconds":82032,"freshness":"FRESH","line1":"1 57426U 23104C   26264.95516635  .00006362  00000+0  25317-3 0  9991","line2":"2 57426  97.2528 326.3582 0015764  58.4512 301.8263 15.25486183176567","mean_motion":15.25486183,"eccentricity":0.0015764,"inclination_deg":97.2528,"raan_deg":326.3582,"arg_perigee_deg":58.4512,"mean_anomaly_deg":301.8263,"bstar":0.00025317,"rev_number":17656,"period_min":94.396135215602,"perigee_km":478.50003896484,"apogee_km":500.15177601958,"semimajor_km":6867.4629074922,"source":"CELESTRAK","updated_at":"2026-09-22T09:00:26.192481Z"}}